Weather History for Kivalina, AK

Change the Weather History Date:

Friday, October 11, 2013

  Actual Average Record
Temperature  
Mean Temperature 36 °F -  
Max Temperature 39 °F - - ()
Min Temperature 33 °F - - ()
Degree Days  
Heating Degree Days 29    
Moisture  
Dew Point 35 °F    
Average Humidity 98    
Maximum Humidity 100    
Minimum Humidity 92    
Precipitation  
Precipitation 0.28 in - - ()
Sea Level Pressure  
Sea Level Pressure 29.46 in    
Wind  
Wind Speed 15 mph (East)    
Max Wind Speed 21 mph    
Max Gust Speed -    
Visibility 4 miles    
Events Rain , Snow    
T = Trace of Precipitation, MM = Missing Value Source: NWS Daily Summary

Daily Weather History Graph

Daily Weather History Graph

Search for Another Location

Airport:

Trip Planner

Search our weather history database for the weather conditions in past years. The results will help you decide how hot, cold, wet, or windy it might be!

Date:

Astronomy

Oct. 11, 2013 Rise Set
Actual Time 9:48 AM AKDT 7:39 PM AKDT
Civil Twilight 8:52 AM AKDT 8:35 PM AKDT
Nautical Twilight 7:48 AM AKDT 9:38 PM AKDT
Astronomical Twilight 6:41 AM AKDT 10:45 PM AKDT
Moon 6:14 PM AKDT (10/11) No Moon Set
Length of Visible Light 11h 42m
Length of Day
9h 51m
Waxing Crescent, 49% of the Moon is Illuminated
Oct 11
Waxing Crescent
Oct 11
First Quarter
Oct 18
Full
Oct 26
Last Quarter
Nov 3
New

Hourly Weather History & Observations

Time (AKDT) Temp. Windchill Dew Point Humidity Pressure Visibility Wind Dir Wind Speed Gust Speed Precip Events Conditions
12:12 AM 33.8 °F 22.5 °F 32.0 °F 93% 29.39 in 1.8 mi ENE 19.6 mph - 0.00 in Snow Light Snow
12:53 AM 33.1 °F 21.5 °F 32.0 °F 96% 29.39 in 1.8 mi ENE 19.6 mph - 0.01 in Snow Light Snow
1:53 AM 33.1 °F 21.2 °F 32.0 °F 96% 29.39 in 2.0 mi ENE 20.7 mph - 0.01 in Snow Light Snow
2:21 AM 33.8 °F 22.2 °F 32.0 °F 93% 29.39 in 1.8 mi ENE 20.7 mph - 0.00 in Snow Light Snow
2:31 AM 33.8 °F 22.5 °F 32.0 °F 93% 29.39 in 3.0 mi ENE 19.6 mph - 0.00 in Snow Light Snow
2:53 AM 34.0 °F 22.7 °F 32.0 °F 92% 29.39 in 2.5 mi ENE 19.6 mph - 0.00 in Snow Light Snow
3:21 AM 33.8 °F 23.2 °F 32.0 °F 93% 29.39 in 4.0 mi ENE 17.3 mph - 0.01 in Snow Light Snow
3:53 AM 34.0 °F 23.0 °F 32.0 °F 92% 29.39 in 4.0 mi ENE 18.4 mph - 0.01 in   Overcast
4:16 AM 33.8 °F 22.8 °F 32.0 °F 93% 29.39 in 2.5 mi ENE 18.4 mph - 0.01 in Snow Light Snow
4:37 AM 33.8 °F 23.2 °F 33.8 °F 100% 29.39 in 3.0 mi ENE 17.3 mph - 0.01 in Snow Light Snow
4:53 AM 34.0 °F 23.4 °F 33.1 °F 96% 29.39 in 3.0 mi ENE 17.3 mph - 0.01 in Snow Light Snow
5:14 AM 33.8 °F 23.2 °F 33.8 °F 100% 29.39 in 2.0 mi ENE 17.3 mph - 0.01 in Snow Light Snow
5:45 AM 33.8 °F 23.2 °F 33.8 °F 100% 29.39 in 1.8 mi ENE 17.3 mph - 0.03 in Snow Light Snow
5:53 AM 34.0 °F 23.4 °F 33.1 °F 96% 29.39 in 2.0 mi ENE 17.3 mph - 0.03 in Snow Light Snow
6:29 AM 33.8 °F 23.2 °F 33.8 °F 100% 29.39 in 3.0 mi ENE 17.3 mph - 0.01 in Snow Light Snow
6:53 AM 34.0 °F 23.4 °F 33.1 °F 96% 29.40 in 3.0 mi ENE 17.3 mph - 0.03 in Snow Light Snow
7:53 AM 34.0 °F 23.0 °F 34.0 °F 100% 29.40 in 4.0 mi ENE 18.4 mph - 0.03 in Snow Light Snow
8:53 AM 35.1 °F 24.8 °F 35.1 °F 100% 29.41 in 4.0 mi ENE 17.3 mph - 0.02 in Rain Light Rain
9:53 AM 35.1 °F 25.9 °F 35.1 °F 100% 29.42 in 10.0 mi ENE 13.8 mph - 0.00 in   Overcast
10:53 AM 35.1 °F 24.8 °F 35.1 °F 100% 29.42 in 5.0 mi East 17.3 mph - 0.03 in Rain Light Rain
11:45 AM 35.6 °F 26.2 °F 35.6 °F 100% 29.43 in 8.0 mi East 15.0 mph - 0.00 in Rain Light Rain
11:53 AM 35.1 °F 25.9 °F 35.1 °F 100% 29.44 in 6.0 mi East 13.8 mph - 0.00 in Rain Light Rain
12:53 PM 35.1 °F 26.9 °F 35.1 °F 100% 29.45 in 3.0 mi East 11.5 mph - 0.01 in Rain Light Rain
1:53 PM 36.0 °F 28.0 °F 36.0 °F 100% 29.47 in 7.0 mi East 11.5 mph - 0.01 in Rain Light Rain
2:53 PM 36.0 °F 29.0 °F 36.0 °F 100% 29.47 in 10.0 mi East 9.2 mph - 0.00 in   Overcast
3:53 PM 37.0 °F 30.4 °F 37.0 °F 100% 29.47 in 6.0 mi ENE 9.2 mph - 0.00 in Rain Light Rain
4:53 PM 37.0 °F 30.4 °F 37.0 °F 100% 29.48 in 6.0 mi ENE 9.2 mph - 0.02 in Rain Light Rain
5:29 PM 37.4 °F 30.8 °F 37.4 °F 100% 29.48 in 1.8 mi East 9.2 mph - 0.01 in Rain Light Rain
5:53 PM 36.0 °F 29.0 °F 36.0 °F 100% 29.49 in 1.2 mi East 9.2 mph - 0.02 in   Overcast
6:22 PM 37.4 °F 32.8 °F - N/A% 29.49 in 2.0 mi East 5.8 mph - 0.00 in Rain Light Rain
6:53 PM 37.0 °F 32.4 °F - N/A% 29.50 in 2.5 mi ESE 5.8 mph - 0.02 in Rain Light Rain
7:04 PM 37.4 °F 32.8 °F - N/A% 29.50 in 2.5 mi SE 5.8 mph - 0.01 in Rain Light Rain
7:13 PM 39.2 °F 34.2 °F - N/A% 29.50 in 4.0 mi SE 6.9 mph - 0.01 in Rain Light Rain
7:27 PM 39.2 °F 34.2 °F - N/A% 29.51 in 6.0 mi SE 6.9 mph - 0.01 in   Haze
7:53 PM 39.0 °F 34.0 °F 39.0 °F 100% 29.51 in 3.0 mi SE 6.9 mph - 0.01 in Rain Light Rain
8:00 PM 39.2 °F 34.2 °F 39.2 °F 100% 29.51 in 2.5 mi SE 6.9 mph - 0.01 in Rain Light Rain
8:14 PM 39.2 °F 35.9 °F 39.2 °F 100% 29.52 in 1.8 mi ESE 4.6 mph - 0.01 in   Overcast
8:24 PM 37.4 °F 33.8 °F 37.4 °F 100% 29.52 in 1.5 mi ESE 4.6 mph - 0.01 in   Overcast
8:36 PM 37.4 °F 33.8 °F 37.4 °F 100% 29.52 in 3.0 mi ESE 4.6 mph - 0.01 in   Overcast
8:53 PM 37.0 °F 32.4 °F 37.0 °F 100% 29.53 in 5.0 mi ESE 5.8 mph - 0.01 in Rain Light Rain
9:06 PM 37.4 °F 33.8 °F 37.4 °F 100% 29.53 in 5.0 mi ESE 4.6 mph - N/A   Overcast
9:53 PM 36.0 °F 32.1 °F 36.0 °F 100% 29.54 in 3.0 mi East 4.6 mph - N/A   Overcast
9:56 PM 35.6 °F 31.7 °F 35.6 °F 100% 29.54 in 2.5 mi East 4.6 mph - N/A   Overcast
10:06 PM 35.6 °F 31.7 °F - N/A% 29.54 in 5.0 mi East 4.6 mph - N/A   Haze
10:13 PM 35.6 °F 30.7 °F - N/A% 29.55 in 6.0 mi East 5.8 mph - N/A   Haze
10:34 PM 35.6 °F 31.7 °F - N/A% 29.55 in 8.0 mi East 4.6 mph - N/A   Overcast
10:53 PM 36.0 °F 32.1 °F - N/A% 29.56 in 10.0 mi East 4.6 mph - N/A   Overcast
11:53 PM 36.0 °F 32.1 °F - N/A% 29.57 in 4.0 mi East 4.6 mph - N/A   Haze
11:58 PM 35.6 °F 31.7 °F - N/A% 29.57 in 2.5 mi East 4.6 mph - N/A   Overcast